Tracking 17921 objects as of 18-January-2017
HD Live streaming from Space Station
objects crossing your sky now

ZY 3

Track ZY 3 now!
10-day predictions
ZY 3 is classified as:


NORAD ID: 38046
Int'l Code: 2012-001A
Perigee: 507.1 km
Apogee: 510.2 km
Inclination: 97.3 °
Period: 94.6 minutes
Semi major axis: 6879 km
RCS: 5.391 m2 (large)
Launch date: January 9, 2012
Source: People's Republic of China (PRC)
Launch site: Taiyaun Space Center, China (TSC)
Your satellite tracking list
Your tracking list is empty





NASA's NSSDC Master Catalog

Two Line Element Set (TLE):
1 38046U 12001A   17018.15624196  .00000581  00000-0  28833-4 0  9998
2 38046  97.3049  89.1053 0002312 100.0973 341.4174 15.21435085279140
Source of the keplerian elements: AFSPC